Погода в Сеймчане

Погода в Сеймчане : погода сейчас, прогноз погоды и архив. Всё, что Вы хотите узнать о погоде в Сеймчане!

Хотите узнать прогноз погоды в Сеймчане? Тогда Вам сюда: Погода в Сеймчане

Поиск расширенной информации на нашем сайте:

Другие новости

Новости СМИ2

Главная страница сайта

Новости сайта

03.07.2017

Напоминаем, что на нашем специализированном сайте Метеоцентр.Азия вы можете получить высокодетализированные автоматические прогнозы погоды по пунктам России, СНГ и мира в авиационном формате (включающие направление и скорость ветра, видимость, явления погоды, количество и форму облачности, нижнюю и верхнюю границу облачности).

Рекомендуем: Если плохие окна необходимо грамотно выбрать нащельник со склада.

Погода в Сеймчане - сегодня

Время (UTC), дата Ветер
(°,м/с) 
Видим.   Явления Облачность Т
(°С)
Тd
(°С)
f(%) Тe
(°С)
Pmin
(гПа)
dP
(гПа)
Po
(мм)
O2
(г/м3)
Тmin Tmax R s Состояние
почвы
12 19.05.18 130 (ЮВ) 20000 м    9/0 средняя, верхняя 
[Ac trans|Ci fib]
+5.6 -1.6 60 +6  1014.8  1.1  742  293           
15 19.05.18 тихо ()   20000 м    9/3 1000 м средняя, верхняя 
[Sc|Ac trans|Ci fib]
+4 -0.5 72 +4  1015.2  0.2  742  295           
18 19.05.18 200 (Ю) 20000 м    9/3 1000 м средняя, верхняя 
[Sc|Ac trans|Ci fib]
+5.1 -0.7 66 +5  1015.6  0.4  742  294           
21 19.05.18 170 (Ю) 20000 м  слаб. ливневой дождь  10/8 1000 м кучево-дожд., средняя 
[Cb calv|As op]
+5.7 +2.3 79 +5  1015.7  0.2  743  293  +3.3    0.0    мокрая 
03 20.05.18 210 (ЮЗ) 20000 м    4/4 1000 м 
[Sc]
+12.1 +2.1 50 +12  1013.9  -1.2  742  286           
06 20.05.18 170 (Ю) 20000 м    1/1 1000 м 
[Sc]
+14.2 -2.1 32 +14  1012.3  -1.4  741  284           
12 20.05.18 160 (Ю) 20000 м    8/1 1000 м средняя 
[Sc|Ac trans]
+9.6 -2.7 42 +10  1011.1  -0.5  739  288           
15 20.05.18 170 (Ю) 20000 м    9/6 1000 м средняя 
[Sc|Ac trans]
+8.6 -2.1 47 +8  1010.4  -0.7  739  289           
18 20.05.18 180 (Ю) 20000 м    9/4 1000 м средняя, верхняя 
[Sc|Ac trans|Ci fib]
+7.1 -2.1 52 +6  1010  -0.6  738  290           
21 20.05.18 220 (ЮЗ) 6-10{10}  20000 м    9/3 1000 м средняя, верхняя 
[Sc|Ac trans|Ci fib]
+9.4 -1.3 47 +8  1008.7  -1  738  287  +6.9        влажная 
03 21.05.18 210 (ЮЗ) 4{10}  20000 м    9/6 1000 м средняя, верхняя 
[Sc|Ac trans|Ci]
+9.4 +0.2 53 +8  1006.6  -1  736  287           
06 21.05.18 170 (Ю) 20000 м    10/6 1000 м средняя 
[Sc|Ac und]
+8 +0.6 59 +8  1005.8  -0.9  735  288           
12 21.05.18 тихо ()   20000 м  слаб. ливневой дождь  10/8 1000 м кучево-дожд., средняя 
[Cb calv|As op]
+4.8 +3.2 89 +5  1004.7  -0.4  734  290           
15 21.05.18 тихо ()   20000 м  {ливн. осадки}  9/5 1000 м кучево-дожд., средняя 
[Cb calv|Ac trans]
+2.9 +2.3 96 +3  1003.6  -1.2  733  292           
18 21.05.18 тихо ()   20000 м  {ливн. осадки}  9/4 1000 м средняя 
[Sc|Ac trans]
+2.3 +1.9 97 +2  1003.2  -0.4  733  293           
00 22.05.18 020 (С) 20000 м    10/3 1000 м верхняя 
[Sc|Cs]
+9.4 +1.1 56 +8  1002.2  -0.2  733  285           
12 22.05.18 010 (С) 3{10}  20000 м    9/3 1000 м средняя, верхняя 
[Sc|Ac trans|Ci fib]
+3.7 -0.4 75 +2  1008.4  1.7  737  293           
15 22.05.18 020 (С) 20000 м    9/3 1000 м средняя, верхняя 
[Sc|Ac trans|Ci fib]
+2.6 -0.4 81 +1  1009.7  1.1  738  294           
18 22.05.18 010 (С) 20000 м    9/3 1000 м верхняя 
[Sc|Ci fib]
+2.6 -1.3 75 +1  1011  1.3  739  295           
21 22.05.18 350 (С) 20000 м    9/4 930 м верхняя 
[Sc|Ci fib]
+5.8 -1.2 61 +5  1011.3  0.6  739  292  +2.3        влажная 
00 23.05.18 360 (С) 20000 м    8/4 600 м верхняя 
[Sc|Ci fib]
+7.9 -0.8 54 +7  1010.8  -0.3  739  289           
03 23.05.18 030 (СВ) 20000 м    ясно 
+10.3 +0.6 51 +9  1010.2  -0.4  739  287           
06 23.05.18 030 (СВ) 20000 м    ясно 
+11.2 +0.2 47 +10  1010  739  286           
12 23.05.18 010 (С) 20000 м    3/0 верхняя 
[Ci fib]
+5.7 -0.5 64 +5  1012.1  0.9  740  292           
15 23.05.18 тихо ()   20000 м    3/0 верхняя 
[Ci fib]
-0.3 -1.7 90 -0  1012.8  0.1  740  299           
Время (UTC), дата Ветер
(°,м/с) 
Видим.   Явления Облачность Т
(°С)
Тd
(°С)
f(%) Тe
(°С)
Pmin
(гПа)
dP
(гПа)
Po
(мм)
O2
(г/м3)
Тmin Tmax R s Состояние
почвы

Для получения пояснительной информации подведите курсор к названию столбца.

ПОГОДА в Сеймчане - архив

Всё, что Вы хотите узнать о погоде в Сеймчане - удобно и подробно!

Выберите нужную дату (начиная с 1 января 2015* года) и нажмите кнопку "Найти".
Будут отображены архивные сводки погоды по пункту Сеймчан, начиная с указанной даты.


Отображать данные в формате CSV (для использования в таблицах Excel)


Внимание! Наш архив погоды предназначен исключительно для личного некоммерческого использования в познавательных целях. Если Вам необходимы официальные справки о состоянии погоды (для производственных, юридических, коммерческих и т.п. целей), обращайтесь в органы Росгидромета.

*Примечание: данная дата относится к архиву по метеостанциям СССР (Россия, СНГ, Балтия).
Архив по метеостанциям Зарубежной Европы и Азии (кроме Китая) хранится 10 дней, по другим регионам земного шара (Китай, Африка, Америка, Австралия, Океания) - 1 день.

Сеймчан - район местоположения метеостанции


Название, широта, долгота, высота метеостанции:
Сеймчан 62.9°ш. 152.4°д. 205 м над ур. моря [Российская Федерация]

Дополнительная информация

В oтличие oт бoльшинства пoгoдных сайтoв мы публикуем пoдрoбную метеoинфoрмацию в детальнoм прoфессиoнальнoм фoрмате.

Характеристики температуры и влажнoсти вoздуха измеряются на высoте 2 м в тени вдали oт зданий и деревьев.
Скoрoсть ветра измеряется на высoте 10 м (на урoвне рoста челoвека скoрoсть ветра ниже в 1.5-2 раза). Если метеoстанция нахoдится в гoрoде или в лесу, тo скoрoсть ветра занижена на 2-4 м/с пo сравнению с oткрытым местoм. Скoрoсть ветра над акватoриями крупных рек и oзёр, а также на вершинах хoлмoв на 2-5 м/с выше, чем в oбычных услoвиях.
Атмoсфернoе давление в разных тoчках местнoсти мoжет значительнo oтличаться oт давления на метеoстанции, в зависимoсти oт услoвий рельефа (при пoдъёме на 10 м давление пoнижается примернo на 1 мм рт.ст.).